Location: Burroughs School (historical)
(37.9364°N, 89.2626°W)
Time: 00:57:21
(UTC+00:00)

Daily predictions for brighter satellites

Satellite Brightness Start Highest point End
(mag) Time Altitude Azimuth Time Altitude Azimuth Time Altitude Azimuth
Resurs 01 Rocket 3.0 01:41:41 10° ESE 01:45:15 24° ENE 01:48:50 10° NNE
SL-4 R/B 3.7 01:44:14 10° WNW 01:46:08 17° WSW 01:47:55 10° SSW
STARLINK-1415 2.2 01:44:07 10° SW 01:46:10 66° NW 01:48:12 10° NE
STARLINK-1125 4.4 01:42:12 10° WNW 01:46:11 47° SW 01:50:09 10° SSE
STARLINK-1406 2.2 01:44:10 10° SW 01:46:11 65° NW 01:48:12 10° NE
STARLINK-1450 2.2 01:44:10 10° SW 01:46:13 66° NW 01:48:15 10° NE
STARLINK-1401 2.2 01:44:10 10° SW 01:46:13 66° NW 01:48:15 10° NE
STARLINK-1417 2.2 01:44:14 10° SW 01:46:17 66° NW 01:48:19 10° NE
STARLINK-1402 2.2 01:44:15 10° SW 01:46:18 65° NW 01:48:20 10° NE
STARLINK-1413 2.2 01:44:15 10° SW 01:46:18 65° NW 01:48:20 10° NE
STARLINK-1419 2.2 01:44:17 10° SW 01:46:19 65° NW 01:48:21 10° NE
STARLINK-1422 2.2 01:44:22 10° SW 01:46:24 65° NW 01:48:27 10° NE
STARLINK-1453 2.2 01:44:23 10° SW 01:46:26 65° NW 01:48:29 10° NE
STARLINK-1398 2.3 01:44:24 10° SW 01:46:28 65° NW 01:48:31 10° NE
STARLINK-1420 2.2 01:44:26 10° SW 01:46:29 65° NW 01:48:31 10° NE
STARLINK-1440 2.2 01:44:29 10° SW 01:46:32 65° NW 01:48:34 10° NE
STARLINK-1460 2.2 01:44:29 10° SW 01:46:32 65° NW 01:48:34 10° NE
STARLINK-1436 (VISORSAT) 2.3 01:44:29 10° SW 01:46:34 65° NW 01:48:37 10° NE
STARLINK-1410 2.3 01:44:33 10° SW 01:46:36 65° NW 01:48:39 10° NE
STARLINK-1423 2.2 01:44:35 10° SW 01:46:36 64° NW 01:48:39 10° NE
STARLINK-1400 2.3 01:44:34 10° SW 01:46:36 65° NW 01:48:39 10° NE
STARLINK-1421 2.2 01:44:35 10° SW 01:46:37 64° NW 01:48:39 10° NE
STARLINK-1454 2.3 01:44:35 10° SW 01:46:39 64° NW 01:48:41 10° NE
STARLINK-1458 2.3 01:44:39 10° SW 01:46:42 64° NW 01:48:44 10° NE
STARLINK-1445 2.3 01:44:41 10° SW 01:46:44 64° NW 01:48:47 10° NE
STARLINK-1407 2.3 01:44:42 10° SW 01:46:46 64° NW 01:48:48 10° NE
STARLINK-1446 2.3 01:44:43 10° SW 01:46:46 64° NW 01:48:49 10° NE
STARLINK-1405 2.2 01:44:47 10° SW 01:46:47 63° NW 01:48:47 10° NE
STARLINK-1370 2.3 01:44:45 10° SW 01:46:48 64° NW 01:48:51 10° NE
STARLINK-1456 2.3 01:44:48 10° SW 01:46:50 64° NW 01:48:52 10° NE
STARLINK-1409 2.3 01:44:48 10° SW 01:46:51 64° NW 01:48:53 10° NE
STARLINK-1439 2.2 01:44:50 10° SW 01:46:51 63° NW 01:48:50 10° NE
STARLINK-1457 2.3 01:44:48 10° SW 01:46:51 64° NW 01:48:53 10° NE
STARLINK-1451 2.3 01:44:48 10° SW 01:46:51 64° NW 01:48:53 10° NE
STARLINK-1447 2.3 01:44:49 10° SW 01:46:52 64° NW 01:48:54 10° NE
STARLINK-1455 2.3 01:44:49 10° SW 01:46:52 64° NW 01:48:55 10° NE
STARLINK-1437 2.3 01:44:51 10° SW 01:46:54 64° NW 01:48:56 10° NE
STARLINK-1441 2.3 01:44:51 10° SW 01:46:54 64° NW 01:48:57 10° NE
STARLINK-1443 2.3 01:44:54 10° SW 01:46:58 64° NW 01:49:01 10° NE
STARLINK-1351 2.3 01:44:56 10° SW 01:46:59 64° NW 01:49:02 10° NE
STARLINK-1418 2.3 01:44:56 10° SW 01:46:59 63° NW 01:49:02 10° NE
STARLINK-1403 2.3 01:44:56 10° SW 01:46:59 64° NW 01:49:01 10° NE
STARLINK-1434 2.3 01:44:56 10° SW 01:47:00 64° NW 01:49:02 10° NE
STARLINK-1442 2.3 01:44:58 10° SW 01:47:00 63° NW 01:49:02 10° NE
STARLINK-1448 2.3 01:45:00 10° SW 01:47:03 63° NW 01:49:04 10° NE
STARLINK-1433 2.3 01:45:00 10° SW 01:47:03 63° NW 01:49:05 10° NE
STARLINK-1449 2.3 01:45:03 10° SW 01:47:06 63° NW 01:49:08 10° NE
STARLINK-1438 2.3 01:45:06 10° SW 01:47:08 63° NW 01:49:09 10° NE
STARLINK-1411 2.3 01:45:14 10° SW 01:47:16 63° NW 01:49:18 10° NE
STARLINK-1412 2.3 01:45:13 10° SW 01:47:16 63° NW 01:49:19 10° NE
Meteor 1-12 Rocket 4.4 01:42:37 10° N 01:48:17 64° E 01:54:00 10° SSE
Cosmos 1975 4.0 01:45:00 10° NNW 01:48:51 46° W 01:52:40 10° SSW
Abrixas rocket 2.2 01:46:08 10° NW 01:49:04 62° NNE 01:51:58 10° ESE
Cosmos 2151 Rocket 4.1 01:45:00 10° N 01:49:21 44° E 01:53:39 10° SSE
BREEZE-M DEB 1.7 01:49:30 10° SW 01:51:37 54° SE 01:54:11 10° ENE
STARLINK-1123 4.5 01:49:31 10° NW 01:53:29 42° NE 01:57:24 10° ESE
MOS 1 Rocket 3.1 01:51:50 10° N 01:56:08 87° W 02:00:26 10° SSW
Resurs 1-3 4.0 01:52:11 10° SE 01:56:23 47° ENE 02:00:35 10° N
Ariane Rocket 3.6 01:51:51 10° S 01:56:51 59° WSW 02:01:54 10° NNW
Cosmos 304 Rocket 3.8 01:52:34 10° SSW 01:57:20 86° WNW 02:02:09 10° NNE
Cosmos 1378 Rocket 4.2 01:53:47 10° SSE 01:57:47 35° E 02:01:45 10° NNE
Cosmos 1674 Rocket 3.8 01:54:03 10° SSE 01:58:15 48° E 02:02:31 10° NNE
STARLINK-1097 4.3 01:54:29 10° NW 01:58:29 45° NE 02:02:27 10° ESE
STARLINK-60 4.5 01:55:30 10° WSW 01:58:29 40° NW 02:01:31 10° NE
FREGAT/IRIS 3.7 01:57:03 10° S 01:59:32 38° W 02:02:04 10° NNW
FALCON 9 DEB 3.6 01:56:36 10° SSW 01:59:45 37° SE 02:02:57 10° ENE
SJ-6B 2.9 01:56:42 10° S 02:00:23 70° W 02:04:08 10° NNW
Cosmos 1110 Rocket 3.9 01:56:11 10° S 02:01:19 72° ESE 02:06:29 10° NNE
Cosmos 1741 Rocket 4.0 01:56:24 10° NNW 02:01:38 76° ENE 02:06:51 10° SSE
MetOp-A 4.2 01:56:45 10° SSE 02:02:04 74° ENE 02:07:26 10° N
STARLINK-1099 4.2 01:59:25 10° NW 02:03:27 50° NE 02:07:17 11° ESE
Cosmos 1066 Rocket 4.3 02:02:26 10° SSE 02:07:35 50° E 02:12:44 10° NNE
Cosmos 1850 Rocket 4.1 02:02:28 10° NNW 02:07:50 90° WSW 02:13:09 10° SSE
STARLINK-1104 4.0 02:04:23 10° NW 02:08:27 54° NE 02:12:05 13° ESE
Meteor 1-23 Rocket 4.4 02:04:41 10° S 02:10:12 56° E 02:15:42 10° NNE
DMSP B5D2-2 4.2 02:05:04 10° NNE 02:10:22 84° WNW 02:15:36 10° SSW
GPS 2-04 Rocket1 3.7 02:08:06 10° WSW 02:11:01 26° SSW 02:13:23 13° SSE
Cosmos 1331 Rocket 3.9 02:07:44 10° SSW 02:12:53 83° ESE 02:18:05 10° NNE
STARLINK-1144 3.9 02:09:20 10° NW 02:13:26 60° NE 02:16:51 14° ESE
Intercosmos 24 3.9 02:10:32 10° N 02:14:16 81° E 02:19:04 10° S
Cosmos 2279 Rocket 4.0 02:08:22 10° N 02:14:37 85° E 02:20:49 10° S
STARLINK-1103 3.8 02:14:18 10° NW 02:18:25 66° NE 02:21:38 16° ESE
STARLINK-1101 3.7 02:19:16 10° NW 02:23:24 73° NE 02:26:26 18° SE
USA 186 4.3 02:22:39 10° SW 02:24:15 14° W 02:25:55 10° WNW
Cosmos 1975 Rocket 4.4 02:22:09 16° SE 02:24:23 23° E 02:27:51 10° NE
SL-8 R/B 3.8 02:19:57 10° NW 02:24:45 73° NNE 02:28:30 16° ESE
CENTAUR R/B 4.2 02:18:03 10° NNW 02:25:20 35° NE 02:32:42 12° ESE
STARLINK-1372 4.4 02:22:54 10° S 02:26:20 28° SE 02:29:46 10° ENE
Cosmos 1302 Rocket 4.1 02:22:13 10° S 02:27:21 56° ESE 02:32:33 10° NNE
STARLINK-1102 3.6 02:24:14 10° NW 02:28:23 81° NE 02:31:12 20° SE
STARLINK-1378 4.2 02:27:31 10° SSW 02:31:03 31° SE 02:34:37 10° ENE
STARLINK-29 4.3 02:28:12 10° WSW 02:31:18 43° NW 02:34:25 10° NE
SPOT 3 Rocket 3.8 02:26:26 10° S 02:31:33 68° WSW 02:36:42 10° NNW
Cosmos 292 Rocket 4.4 02:28:23 12° SSE 02:32:22 36° ESE 02:36:47 10° NE
STARLINK-1111 3.6 02:29:14 10° NW 02:33:23 89° NE 02:36:01 22° SE
Cosmos 1242 Rocket 4.3 02:34:22 16° E 02:34:40 16° E 02:36:58 10° NE
SL-4 R/B 3.7 02:30:54 10° WSW 02:35:19 43° NNW 02:39:55 10° NE
STARLINK-1379 4.1 02:31:54 10° SSW 02:35:32 34° SE 02:39:11 10° ENE
COSMOS 2455 3.9 02:32:32 17° SE 02:35:32 24° ESE 02:40:15 10° NE
deb Kosmos-1763 4.5 02:32:24 10° NNW 02:35:56 58° WSW 02:38:41 16° S
H-2A R/B 4.5 02:34:33 10° SW 02:38:10 19° W 02:41:51 10° NW
STARLINK-1073 3.6 02:34:12 10° NW 02:38:21 83° SW 02:40:47 24° SE
CZ-2C R/B 3.7 02:33:35 10° N 02:38:59 50° WNW 02:44:19 10° SW
STARLINK-1329 4.0 02:35:38 10° SSW 02:39:21 37° SE 02:43:04 10° ENE
ASTRO E2 4.4 02:37:10 10° WSW 02:39:56 18° SSW 02:41:02 16° S
Cosmos 2263 4.4 02:34:58 10° S 02:40:17 47° ESE 02:45:38 10° NE
BREEZE-M DEB (TANK) 2.5 02:39:38 10° SW 02:42:01 63° SE 02:47:36 10° ENE
STARLINK-1121 3.6 02:39:10 10° NW 02:43:19 75° SW 02:45:34 26° SE
STARLINK-1362 3.9 02:40:05 10° SSW 02:43:52 41° SE 02:47:40 10° ENE
Cosmos 1943 Rocket 2.3 02:40:04 10° SSW 02:45:35 76° WNW 02:51:13 10° NNE
STARLINK-1320 2.8 02:42:39 10° SW 02:45:42 58° SE 02:48:47 10° NE
STARLINK-1322 2.8 02:43:00 10° SW 02:46:03 58° SE 02:49:07 10° NE
STARLINK-1324 2.8 02:43:18 10° SW 02:46:22 59° SE 02:49:26 10° NE
STARLINK-1294 2.8 02:43:39 10° SW 02:46:41 59° SE 02:49:45 10° NE
STARLINK-1261 2.8 02:44:00 10° SW 02:47:03 60° SE 02:50:08 10° NE
STARLINK-1325 2.8 02:44:21 10° SW 02:47:24 61° SE 02:50:29 10° NE
STARLINK-1333 2.7 02:44:42 10° SW 02:47:46 62° SE 02:50:51 10° NE
STARLINK-1334 2.7 02:45:00 10° SW 02:48:03 62° SE 02:51:08 10° NE
STARLINK-1106 3.7 02:44:10 10° NW 02:48:16 68° SW 02:50:20 28° SSE
STARLINK-1373 3.8 02:44:30 10° SSW 02:48:19 44° SE 02:52:09 10° ENE
STARLINK-1326 2.7 02:45:19 10° SW 02:48:22 63° SE 02:51:28 10° NE
STARLINK-1323 2.7 02:45:41 10° SW 02:48:46 63° SE 02:51:51 10° NE
STARLINK-1349 2.7 02:45:59 10° SW 02:49:03 64° SE 02:52:09 10° NE
STARLINK-1336 2.7 02:46:18 10° SW 02:49:23 65° SE 02:52:28 10° NE
STARLINK-1331 2.7 02:46:41 10° SW 02:49:45 65° SE 02:52:51 10° NE
STARLINK-1344 2.7 02:46:59 10° SW 02:50:03 66° SE 02:53:10 10° NE
STARLINK-1343 2.7 02:47:22 10° SW 02:50:26 67° SE 02:53:33 10° NE
STARLINK-1346 2.7 02:47:39 10° SW 02:50:44 67° SE 02:53:51 10° NE
STARLINK-1328 2.7 02:48:05 10° SW 02:51:10 68° SE 02:54:15 10° NE
STARLINK-1354 2.7 02:48:22 10° SW 02:51:27 69° SE 02:54:33 10° NE
STARLINK-1347 2.7 02:48:39 10° SW 02:51:44 69° SE 02:54:50 10° NE
Cosmos 1092 Rocket 4.0 02:46:49 15° SSE 02:51:51 60° E 02:57:53 10° NNE
STARLINK-1357 2.7 02:49:05 10° SW 02:52:10 70° SE 02:55:16 10° NE
STARLINK-1335 2.7 02:49:22 10° SW 02:52:27 71° SE 02:55:33 10° NE
STARLINK-1327 2.7 02:49:43 10° SW 02:52:48 71° SE 02:55:54 10° NE
STARLINK-1390 3.6 02:49:04 10° SSW 02:52:58 50° SE 02:56:53 10° ENE
STARLINK-1340 2.7 02:50:01 10° SW 02:53:05 72° SE 02:56:12 10° NE
STARLINK-1112 3.8 02:49:10 10° NW 02:53:16 60° SW 02:55:08 29° SSE
STARLINK-1356 2.7 02:50:23 10° SW 02:53:29 73° SE 02:56:35 10° NE
STARLINK-1345 2.7 02:50:42 10° SW 02:53:47 74° SE 02:56:54 10° NE
Landsat 7 4.1 02:51:22 25° SE 02:53:52 52° ENE 02:58:29 10° N
STARLINK-1355 2.7 02:51:03 10° SW 02:54:09 74° SE 02:57:15 10° NE
STARLINK-1321 2.7 02:51:24 10° SW 02:54:30 75° SE 02:57:36 10° NE
NOSS 3-4 (A) 3.3 02:49:00 10° SSW 02:54:47 61° ESE 03:00:49 10° NE
NOSS 3-4 (C) 3.3 02:49:07 10° SSW 02:54:53 60° ESE 03:00:55 10° NE
STARLINK-1358 2.7 02:51:47 10° SW 02:54:53 76° SE 02:57:59 10° NE
STARLINK-1332 2.7 02:52:04 10° SW 02:55:10 77° SE 02:58:16 10° NE
STARLINK-1348 2.7 02:52:24 10° SW 02:55:30 77° SE 02:58:37 10° NE
STARLINK-1330 2.7 02:52:44 10° SW 02:55:49 78° SE 02:58:57 10° NE
STARLINK-1363 2.7 02:53:04 10° SW 02:56:10 79° SE 02:59:16 10° NE
STARLINK-1337 2.7 02:53:26 10° SW 02:56:32 79° SE 02:59:39 10° NE
ATLAS CENTAUR R/B 1.5 02:52:12 10° SSW 02:56:37 57° ESE 03:00:47 10° NE
Okean 1 Rocket 3.2 02:52:16 10° NNW 02:56:42 73° W 02:59:40 20° S
Cosmos 1455 Rocket 4.1 02:53:04 10° NNE 02:56:50 28° ENE 02:57:57 25° ESE
STARLINK-1342 2.7 02:53:45 10° SW 02:56:51 80° SE 02:59:58 10° NE
STARLINK-1364 2.7 02:54:06 10° SW 02:57:12 81° SE 03:00:18 10° NE
IGS 5A 3.7 02:55:29 30° SE 02:57:16 54° ENE 03:01:20 10° N
Okean 2 3.4 02:55:04 25° SSE 02:57:19 63° E 03:01:27 10° NNE
STARLINK-1376 2.7 02:54:25 10° SW 02:57:32 82° SE 03:00:39 10° NE
STARLINK-1360 2.7 02:54:46 10° SW 02:57:52 82° SE 03:00:59 10° NE
Lacrosse 5 4.4 02:56:44 10° WSW 02:57:56 11° WSW 02:59:08 10° SW
STARLINK-1128 4.0 02:54:09 10° WNW 02:58:12 54° SW 02:59:54 31° SSE
STARLINK-1361 2.7 02:55:07 10° SW 02:58:13 83° SE 03:01:19 10° NE
STARLINK-1367 2.7 02:55:24 10° SW 02:58:29 84° SE 03:01:37 10° NE
STARLINK-1366 2.7 02:55:45 10° SW 02:58:52 85° SE 03:01:58 10° NE
STARLINK-1365 3.5 02:54:57 10° SSW 02:58:56 58° SE 03:02:57 10° NE
ERS-1 Rocket 3.8 02:59:07 25° ESE 03:01:15 37° ENE 03:05:51 10° N
STARLINK-1113 4.1 02:59:11 10° WNW 03:03:11 48° SW 03:04:42 32° S
Cosmos 1656 Rocket 3.8 03:00:25 18° S 03:04:22 52° ESE 03:09:46 10° NNE
Cosmos 1766 3.2 03:02:25 10° N 03:06:26 77° E 03:07:53 38° SSE
STARLINK-1119 4.3 03:04:12 10° WNW 03:08:08 43° SW 03:09:28 32° S
STARLINK-1338 3.3 03:04:53 10° SW 03:08:50 72° SE 03:12:48 10° NE
STARLINK-1114 4.5 03:09:14 10° WNW 03:13:06 39° SW 03:14:16 31° S
Meteor 2-13 Rocket 4.5 03:12:39 27° SSE 03:16:05 62° E 03:22:09 10° NNE
Cosmos 968 Rocket 4.0 03:11:24 10° N 03:16:18 43° ENE 03:17:59 32° ESE
STARLINK-1371 3.3 03:13:00 10° SW 03:16:57 86° SE 03:20:55 10° NE
MetOp-B 4.4 03:13:45 22° S 03:17:09 63° WSW 03:22:28 10° NNW
Meteor 1-21 4.2 03:18:00 31° SSE 03:20:42 64° E 03:26:14 10° NNE
STARLINK-1341 3.4 03:17:22 10° SW 03:21:20 87° NW 03:25:18 10° NE
Resurs 01 Rocket 3.3 03:18:10 12° SSW 03:21:36 28° W 03:25:26 10° NW
Cosmos 2084 4.1 03:22:08 37° E 03:22:08 37° E 03:25:46 10° NE
Cosmos 2369 Rocket 2.9 03:16:35 10° SW 03:22:06 53° WNW 03:27:38 10° NNE
ATLAS 2AS CENTAUR R/B 3.1 03:14:30 10° SSW 03:22:26 84° WNW 03:30:29 10° NNE
USA 245 3.1 03:23:08 47° W 03:23:08 47° W 03:25:14 10° NNW
Milstar 3 Cent rocket 4.0 03:16:20 10° SW 03:23:55 47° SSE 03:39:34 10° E
Cosmos 1867 4.3 03:19:32 10° NNW 03:24:42 42° NE 03:26:48 29° E
STARLINK-1374 3.5 03:22:00 10° SW 03:25:59 80° NW 03:29:59 10° NE
NOSS 3-2 (A) 4.2 03:19:56 10° NW 03:27:43 74° WSW 03:32:28 30° SSE
Cosmos 2026 Rocket 4.0 03:25:23 24° S 03:29:26 89° E 03:35:51 10° N
STARLINK-1339 3.6 03:26:02 10° SW 03:29:58 73° NW 03:33:56 10° NE
Cosmos 1726 4.3 03:31:01 10° NE 03:32:42 15° ENE 03:32:42 15° ENE
Cosmos 1544 Rocket 3.7 03:30:12 10° N 03:34:28 54° E 03:34:57 51° ESE
STARLINK-1377 3.8 03:30:45 10° WSW 03:34:42 67° NW 03:38:41 10° NE
SPOT 5 3.1 03:34:48 44° SE 03:36:29 72° ENE 03:41:50 10° N
STARLINK-1353 4.0 03:35:07 10° WSW 03:39:03 61° NW 03:43:02 10° NE
Terra 2.1 03:38:15 45° ESE 03:39:08 52° ENE 03:43:46 10° N
Spot 2 Rocket 4.3 03:38:20 26° SSW 03:40:47 44° W 03:45:36 10° NNW
USA 238 DEB 4.2 03:35:38 10° NW 03:42:47 59° WSW 03:46:14 32° S
USA 238 4.1 03:35:44 10° NW 03:42:53 60° WSW 03:46:20 33° S
STARLINK-1375 4.2 03:39:33 10° WSW 03:43:28 56° NW 03:47:24 10° NE
STARLINK-1235 3.6 03:40:09 10° NW 03:43:23 57° NNE 03:43:23 57° NNE
Cosmos 1470 2.9 03:40:53 10° N 03:44:32 60° ENE 03:44:32 60° ENE
Cosmos 1553 Rocket 4.1 03:38:51 10° N 03:44:58 58° E 03:46:44 43° SE
Cosmos 1733 4.2 03:43:31 10° NNW 03:47:04 38° W 03:47:46 35° WSW
STARLINK-1212 4.0 03:44:05 10° NW 03:46:32 41° N 03:46:32 41° N
SL-27 R/B 3.5 03:44:28 10° NW 03:47:43 36° WSW 03:47:48 36° WSW
STARLINK-1350 4.3 03:43:56 10° WSW 03:47:49 51° NW 03:51:45 10° NE
STARLINK-1105 4.0 03:45:12 10° NW 03:47:44 43° N 03:47:44 43° N
STARLINK-1247 4.0 03:46:19 10° NW 03:48:53 44° N 03:48:53 44° N
STARLINK-1227 4.0 03:46:59 10° NW 03:49:31 44° N 03:49:31 44° N
COSMOS 2487 4.0 03:47:53 10° N 03:50:14 27° NE 03:50:14 27° NE
STARLINK-1226 4.0 03:48:10 10° NW 03:50:39 43° N 03:50:39 43° N
STARLINK-1352 4.5 03:48:03 10° WSW 03:51:55 47° NW 03:55:48 10° NE
STARLINK-1215 4.0 03:49:17 10° NW 03:51:47 44° N 03:51:47 44° N
STARLINK-1217 4.1 03:51:38 10° NW 03:54:03 43° NNW 03:54:03 43° NNW
Cosmos 1340 Rocket 4.2 03:51:28 10° NNE 03:54:34 28° ENE 03:54:34 28° ENE
STARLINK-1229 4.1 03:52:47 10° NW 03:55:09 42° NNW 03:55:09 42° NNW
STARLINK-1270 4.2 03:53:32 10° NW 03:55:46 40° NNW 03:55:46 40° NNW
VEP-3 4.4 03:52:37 10° SW 04:06:30 - ESE 03:53:40 14° SSW
Cosmos 1025 Rocket 2.8 03:58:04 84° S 03:58:11 88° E 04:02:31 10° N
STARLINK-1189 4.3 03:56:24 10° NW 03:58:40 40° NNW 03:58:40 40° NNW
STARLINK-1188 4.3 03:57:39 10° NW 03:59:52 39° NNW 03:59:52 39° NNW
Cosmos 1503 Rocket 3.9 03:56:44 10° NNW 04:02:06 83° ENE 04:02:59 63° SSE
Cosmos 2266 Rocket 4.2 04:01:24 45° ESE 04:02:16 48° E 04:08:01 10° NNE
STARLINK-1191 4.5 04:00:18 10° NW 04:02:21 36° NW 04:02:21 36° NW
Cosmos 1271 Rocket 3.4 04:03:20 48° W 04:03:40 50° W 04:07:31 10° N
RESURS DK-1 3.0 04:05:59 47° NE 04:05:59 47° NE 04:09:06 10° NNE
SeaSat 1 4.2 04:04:51 10° NE 04:06:53 19° ENE 04:06:53 19° ENE
Cosmos 1242 Rocket 4.4 04:08:21 23° W 04:09:17 25° WNW 04:12:24 10° NNW
Meteor 2-10 4.0 04:04:29 10° N 04:09:30 62° E 04:09:49 61° E
Cosmos 1655 Rocket 3.9 04:08:50 52° S 04:10:27 81° E 04:16:45 10° N
Cosmos 1953 3.1 04:07:00 10° N 04:10:06 44° NE 04:10:06 44° NE
Cosmos 1707 3.4 04:15:53 52° WNW 04:15:53 52° WNW 04:19:28 10° N
ATLAS 3B CENTAUR R/B 3.7 04:03:01 10° W 04:16:23 40° SSW 04:17:40 38° S
CENTAUR R/B 3.3 04:08:23 10° NW 04:16:39 66° WSW 04:19:53 42° S
COSMOS 2455 3.6 04:15:31 11° SW 04:21:05 49° WNW 04:26:56 10° NNE
Cosmos 1354 Rocket 4.0 04:19:25 10° NNW 04:24:43 70° WSW 04:25:09 66° SW
ATLAS 3B R/B 2.7 04:18:19 10° NNW 04:25:11 73° ENE 04:27:03 51° SE
Cosmos 1758 4.4 04:26:17 10° NNW 04:29:47 39° W 04:29:47 39° W
ATLAS CENTAUR R/B 4.3 04:33:09 10° W 04:35:48 16° NW 04:38:22 10° N
Cosmos 2297 Rocket 4.0 04:32:29 10° N 04:36:35 20° NE 04:38:20 18° ENE
Meteor 2-19 Rocket 4.4 04:38:54 59° SSW 04:40:03 77° W 04:46:12 10° N
CZ-4C R/B 3.6 04:47:00 22° ENE 04:47:00 22° ENE 04:49:30 10° NE
SJ 16-02 3.8 04:48:12 10° NNE 04:50:12 13° ENE 04:50:26 13° ENE
Cosmos 2098 Rocket 4.3 04:54:00 60° S 04:55:35 90° W 05:03:04 10° N
Cosmos 1697 Rocket 4.4 04:59:44 20° E 04:59:44 20° E 05:02:33 10° NE
Meteor 1-16 Rocket 4.4 04:58:22 10° NNW 05:03:34 56° W 05:03:34 56° W
Cosmos 1809 Rocket 4.3 05:04:25 73° ESE 05:04:39 74° E 05:10:51 10° N
Meteor 2-15 4.4 04:59:03 10° NNW 05:05:08 70° W 05:05:36 67° SW
Exosat Rocket 4.2 04:58:15 10° NNW 05:06:06 62° WSW 05:06:47 58° SW
Cosmos 1726 4.3 05:05:18 10° NNW 05:07:12 22° WNW 05:07:12 22° WNW
Timation 2 Rocket 3.7 05:03:12 10° NNW 05:09:25 90° ENE 05:09:37 85° SSE
Cosmos 2227 Rocket 3.3 05:09:36 10° N 05:14:44 34° ENE 05:15:33 32° ENE
BREEZE-M DEB (TANK) 3.8 05:08:24 10° WSW 05:14:58 37° NW 05:17:49 10° NE
Terra 4.1 05:17:08 15° W 05:17:09 15° W 05:19:46 10° WNW
Nadezhda 2 Rocket 4.3 05:20:44 83° SW 05:20:57 87° W 05:27:08 10° N
Cosmos 1777 Rocket 4.4 05:16:18 10° NNW 05:20:48 54° WNW 05:20:48 54° WNW
Cosmos 2315 Rocket 4.1 05:19:27 10° NNW 05:25:34 62° W 05:25:55 61° WSW
BREEZE-M DEB (TANK) 4.5 05:26:41 10° WNW 05:31:49 36° WNW 05:31:49 36° WNW
Meteor 2-5 Rocket 4.2 05:36:00 51° W 05:36:08 51° WNW 05:41:38 10° N
Cosmos 1626 4.2 05:38:59 26° NNW 05:38:59 26° NNW 05:40:47 10° N
Meteor 2-16 Rocket 4.3 05:39:30 79° E 05:39:30 79° E 05:45:36 10° N
Cosmos 2058 Rocket 4.1 05:35:49 10° N 05:38:59 45° NNW 05:38:59 45° NNW
ALOS 2 3.7 05:44:09 41° NNW 05:44:09 41° NNW 05:47:07 10° NNW
SeaSat 1 3.3 05:41:45 10° N 05:46:22 41° WNW 05:46:39 41° WNW
Cosmos 468 Rocket 4.3 05:54:41 62° NNE 05:54:41 62° NNE 05:58:56 10° NNE
SL-08 ROCKET BODY 4.3 05:56:06 75° ENE 05:56:06 75° ENE 06:01:42 10° N
Cosmos 1980 Rocket 3.2 05:57:04 35° E 05:57:04 35° E 06:01:16 10° NE
Lacrosse 4 Rocket 3.0 05:53:04 10° N 05:56:09 31° NNE 05:56:09 31° NNE
USA 215 4.5 05:51:17 10° E 05:57:12 38° NNE 06:03:07 10° NNW
FALCON 9 R/B 3.7 06:03:08 36° ESE 06:03:08 36° ESE 06:11:13 10° ESE
Cosmos 2369 3.7 06:07:49 75° NE 06:07:49 75° NE 06:13:00 10° NNE
Cosmos 1937 Rocket 4.2 06:02:29 10° N 06:07:35 47° ENE 06:07:36 47° ENE
Helios 1A 4.5 06:14:00 32° NW 06:14:00 32° NW 06:16:25 10° NNW
Cosmos 1656 4.5 06:13:31 41° WNW 06:13:59 42° WNW 06:19:18 10° N
ATLAS 3B R/B 4.3 06:10:28 10° WNW 06:14:17 19° W 06:14:17 19° W
Cosmos 1745 Rocket 3.9 06:15:24 72° W 06:15:30 72° W 06:21:39 10° N
Cosmos 1898 Rocket 3.7 06:11:30 10° NNW 06:16:14 69° N 06:16:14 69° N
Cosmos 2297 Rocket 2.6 06:15:29 10° NNW 06:20:07 51° WNW 06:20:07 51° WNW
Cosmos 2360 4.2 06:23:44 80° NNE 06:23:44 80° NNE 06:29:08 10° NNE
Cosmos 2219 4.1 06:20:03 10° NW 06:24:10 37° WNW 06:24:10 37° WNW
Cosmos 990 Rocket 4.3 06:20:18 10° NNW 06:24:42 62° NW 06:24:42 62° NW
SJ 16-02 2.8 06:24:48 10° NNW 06:27:24 33° NW 06:27:24 33° NW
Cosmos 1814 Rocket 4.3 06:29:50 64° ENE 06:29:50 64° ENE 06:34:31 10° NNE
CZ-4C R/B 3.2 06:32:08 31° WNW 06:33:09 33° NW 06:38:22 10° NNE
BREEZE M DEB (TANK) 4.3 06:31:41 55° S 06:33:22 66° SE 07:01:34 10° NE
Cosmos 2322 Rocket 4.1 06:35:08 18° E 06:35:16 18° E 06:38:52 10° ENE
Cosmos 2082 3.6 06:30:10 10° NNW 06:35:31 81° NNW 06:35:31 81° NNW
Cosmos 841 Rocket 3.6 06:39:02 71° NNW 06:39:02 71° NNW 06:43:46 10° NNE
Cosmos 1697 Rocket 3.3 06:41:27 45° WNW 06:41:50 46° WNW 06:47:17 10° N
Cosmos 1758 Rocket 4.4 06:44:04 48° N 06:44:04 48° N 06:47:20 10° N
Cosmos 2278 3.7 06:43:42 70° WNW 06:43:42 70° WNW 06:49:22 10° NNE
Meteor 2-1 Rocket 4.5 06:40:07 10° NNW 06:45:07 55° WNW 06:45:07 55° WNW
Cosmos 1570 Rocket 4.3 06:46:31 58° WNW 06:46:31 58° WNW 06:51:30 10° N
Resurs 1-4 Rocket 3.4 06:43:16 10° NE 06:47:49 28° E 06:48:08 28° ESE
SL-19 R/B 4.3 06:45:01 10° NNE 06:50:46 73° ESE 06:51:07 71° SE
Cosmos 2181 Rocket 4.1 06:49:39 10° N 06:56:08 75° E 06:57:15 60° SE
Cosmos 2227 Rocket 3.5 06:53:45 10° NW 06:57:20 28° WNW 06:57:20 28° WNW
Cosmos 1953 Rocket 4.1 07:02:11 57° N 07:02:11 57° N 07:05:44 10° N
Cosmos-2242 3.8 06:58:37 10° N 07:01:42 47° NNW 07:01:42 47° NNW
Cosmos 1709 Rocket 4.2 07:03:41 52° W 07:04:08 53° W 07:10:11 10° N
Gblst 52 Del rocket 4.3 07:04:38 68° WSW 07:05:31 86° NW 07:12:28 10° NE
IRAS Rocket 4.1 07:07:06 72° SE 07:07:39 82° ENE 07:13:12 10° NNW
SL-16 R/B 2.7 07:10:10 44° ESE 07:10:37 45° ESE 07:16:00 10° NE
Cosmos 1241 Rocket 4.3 07:11:44 66° SSE 07:12:23 71° ESE 07:18:35 10° NNE
GP-B 3.5 07:08:44 10° N 07:12:45 58° ENE 07:12:45 58° ENE
SL-16 R/B 3.2 07:10:44 29° SE 07:13:35 50° ENE 07:19:30 10° N
Helios 1B rocket 4.3 07:13:05 10° NNW 07:15:40 22° NW 07:15:40 22° NW
Cosmos 489 Rocket 4.4 07:16:05 62° WSW 07:16:58 70° WNW 07:23:15 10° NNE
STARLINK-1305 4.4 07:19:34 50° NE 07:19:34 50° NE 07:22:43 10° NE
CZ-2D R/B 2.4 07:14:41 10° NNE 07:19:48 55° E 07:20:19 52° ESE
STARLINK-1306 4.3 07:20:43 55° NNE 07:20:43 55° NNE 07:24:05 10° NE
Cosmos 540 Rocket 4.5 07:20:21 34° WNW 07:20:35 34° WNW 07:25:14 10° N
Cosmos 1455 4.4 07:18:27 10° NNW 07:19:41 17° NW 07:19:41 17° NW
STARLINK-1262 4.2 07:24:22 55° NNE 07:24:22 55° NNE 07:27:43 10° NE
NOSS 2-1 (E) 4.4 07:26:55 35° NE 07:26:55 35° NE 07:29:05 10° NE
STARLINK-1300 4.1 07:29:09 59° NNE 07:29:09 59° NNE 07:32:40 10° NE
Cosmos 2285 Rocket 4.4 07:25:09 10° NNW 07:31:06 44° W 07:31:12 44° WSW
Cosmos 2360 Rocket 3.5 07:31:03 25° SE 07:32:33 28° ESE 07:37:17 10° NE
STARLINK-1295 4.0 07:33:55 59° N 07:33:55 59° N 07:37:37 10° NE
SL-4 R/B 3.8 07:33:40 10° NW 07:38:11 37° NNE 07:42:30 10° E
STARLINK-1287 4.0 07:38:42 57° NNW 07:38:42 57° NNW 07:42:35 10° NE
USA 215 3.1 07:37:06 36° SSE 07:39:55 67° SW 07:46:27 10° NW
Cosmos 1980 Rocket 3.4 07:38:49 26° W 07:40:08 29° WNW 07:45:01 10° N
Cosmos 1892 3.8 07:41:51 36° E 07:41:51 36° E 07:45:20 10° NNE
CZ-4B R/B 3.7 07:37:57 10° NNE 07:43:13 66° ESE 07:44:19 52° SSE
UNK 3.6 07:45:02 72° SSE 07:45:30 84° ENE 07:50:05 10° N
STARLINK-1302 4.2 07:48:16 47° NW 07:48:28 48° NW 07:52:29 10° NE
STARLINK-24 4.3 07:49:27 44° E 07:49:27 44° E 07:52:42 10° ENE
Cosmos 2074 Rocket 4.1 07:50:09 48° SW 07:51:37 59° W 07:57:50 10° N
AQUA 3.8 07:48:24 10° NNE 07:53:11 80° ESE 07:53:56 63° S
STARLINK-81 4.3 07:54:07 39° E 07:54:07 39° E 07:56:46 10° ENE
STARLINK-1273 4.4 07:53:02 42° NW 07:53:27 44° NW 07:57:26 10° NE
STARLINK-54 4.1 07:55:30 43° E 07:55:30 43° E 07:58:10 10° NE
Cosmos 1869 3.4 07:51:06 10° N 07:54:56 64° E 07:55:04 64° E
STARLINK-61 3.9 07:55:11 54° NW 07:55:11 54° NW 07:59:02 10° NE
STARLINK-1008 4.5 07:56:10 38° ESE 07:56:10 38° ESE 07:59:42 10° ENE
ADEOS II 2.8 07:51:20 10° NNE 07:56:23 45° E 07:58:24 31° SSE
STARLINK-77 4.1 07:57:14 43° E 07:57:14 43° E 08:00:02 10° ENE
IRS-1D 3.8 07:52:39 10° NNE 07:57:50 61° E 07:59:26 41° SSE
Cosmos 2263 Rocket 2.0 07:54:56 10° NNW 08:00:32 78° WSW 08:02:25 43° S
STARLINK-1014 4.2 08:00:58 43° ESE 08:00:58 43° ESE 08:04:42 10° ENE
STARLINK-79 3.8 08:01:56 51° E 08:01:56 51° E 08:04:56 10° NE
STARLINK-78 3.7 08:03:30 55° E 08:03:30 55° E 08:06:36 10° NE
ARIANE 5 R/B 3.9 07:59:18 10° NE 08:03:40 30° E 08:06:22 18° SE
STARLINK-57 3.6 08:04:48 59° E 08:04:48 59° E 08:07:54 10° NE
STARLINK-1025 4.0 08:05:44 48° SE 08:05:44 48° SE 08:09:45 10° ENE
STARLINK-49 3.6 08:06:19 59° E 08:06:19 59° E 08:09:27 10° NE
Cosmos 1408 3.4 08:06:51 40° ESE 08:07:23 43° E 08:10:54 10° NNE
NPP 3.8 08:02:09 10° N 08:07:29 62° WNW 08:08:53 45° SW
Cosmos 1076 Rocket 3.5 08:07:00 61° S 08:07:43 82° E 08:12:07 10° N
STARLINK-27 3.4 08:08:12 65° E 08:08:12 65° E 08:11:30 10° NE
Cosmos 2151 4.5 08:06:52 22° SE 08:08:46 32° E 08:12:35 10° NNE
STARLINK-74 3.3 08:09:46 69° E 08:09:46 69° E 08:13:07 10° NE
STARLINK-1017 3.8 08:10:29 54° SE 08:10:40 54° SE 08:14:43 10° ENE
Cosmos 2341 Rocket 4.3 08:07:20 28° SSE 08:10:47 66° E 08:17:04 10° NNE
STARLINK-39 3.3 08:11:20 74° E 08:11:20 74° E 08:14:45 10° NE
BREEZE M DEB (TANK) 2.9 08:11:18 56° W 08:11:53 69° SW 08:19:35 10° SE
STARLINK-31 3.2 08:12:55 79° E 08:12:55 79° E 08:16:25 10° NE
STARLINK-69 3.1 08:13:59 83° NNE 08:13:59 83° NNE 08:17:25 10° NE
STARLINK-1023 3.7 08:15:16 57° SSE 08:15:38 61° SE 08:19:42 10° NE
Cosmos 1825 3.4 08:14:43 28° SE 08:15:55 36° E 08:19:24 10° NNE
STARLINK-21 3.1 08:16:02 89° ESE 08:16:02 89° ESE 08:19:39 10° NE
STARLINK-45 3.1 08:17:45 78° WNW 08:17:51 79° NW 08:21:29 10° NE
Cosmos 2322 Rocket 2.4 08:16:57 39° WSW 08:18:45 57° WNW 08:24:18 10° NNE
BREEZE-M DEB (TANK) 3.9 08:17:41 30° W 08:19:59 64° NNW 08:34:29 10° ENE
In-Cosmos 22 Rocket 4.1 08:18:09 41° SSW 08:20:05 71° W 08:25:35 10° N
STARLINK-1007 3.6 08:20:05 59° S 08:20:38 68° SE 08:24:45 10° NE
STARLINK-76 3.1 08:20:46 77° W 08:20:57 81° NW 08:24:35 10° NE
STARLINK-70 3.2 08:21:49 69° W 08:22:07 75° NW 08:25:47 10° NE
STARLINK-23 3.1 08:22:21 73° W 08:22:35 78° NW 08:26:13 10° NE
Iridium 2 4.3 08:19:26 10° NNW 08:22:42 39° WNW 08:22:42 39° WNW
STARLINK-32 3.1 08:23:05 73° WNW 08:23:16 77° NW 08:26:48 10° NE
STARLINK-1048 3.5 08:24:51 57° SSW 08:25:35 75° SE 08:29:44 10° NE
STARLINK-40 3.2 08:25:28 65° W 08:25:50 73° NW 08:29:27 10° NE
STARLINK-60 3.0 08:23:34 10° NW 08:26:45 73° NE 08:29:56 10° SE
STARLINK-44 3.3 08:26:59 61° W 08:27:25 70° NW 08:31:02 10° NE
Shenzhou-11 Module 3.6 08:27:17 23° NNW 08:27:34 24° N 08:29:38 10° ENE
Resurs 1-4 Rocket 3.1 08:22:52 10° N 08:27:35 33° WNW 08:29:13 28° WSW
Cosmos 1125 Rocket 3.8 08:23:45 10° NNW 08:28:40 43° WSW 08:29:46 38° SW
STARLINK-37 3.4 08:28:43 53° W 08:29:15 61° NW 08:32:50 10° NE
SL-8 Rocket 4.2 08:25:25 21° S 08:29:41 68° E 08:35:54 10° NNE
USA 229 DEB 3.8 08:22:47 10° NW 08:30:07 68° WSW 08:37:43 10° SSE
USA 229 3.8 08:22:53 10° NW 08:30:13 69° WSW 08:37:50 10° SSE
STARLINK-1049 3.5 08:29:39 53° SW 08:30:34 83° SE 08:34:43 10° NE
STARLINK-36 3.4 08:30:07 54° W 08:30:40 65° NW 08:34:16 10° NE
NOSS 3-1 (C) 4.1 08:23:10 10° NW 08:30:57 63° WSW 08:39:39 10° SSE
STARLINK-63 3.6 08:33:07 46° W 08:33:48 56° NW 08:37:21 10° NE
STARLINK-35 3.5 08:33:51 49° W 08:34:27 58° NW 08:37:56 10° NE
Cosmos 2218 Rocket 4.4 08:29:40 17° SSE 08:34:35 62° E 08:40:54 10° NNE
SL-08 R/B 3.7 08:30:53 12° SSE 08:35:06 61° ENE 08:39:39 10° N
STARLINK-1051 3.5 08:34:24 48° SW 08:35:32 89° NW 08:39:41 10° NE
STARLINK-51 3.6 08:36:10 43° W 08:36:58 55° NW 08:40:29 10° NE
GEOS 3 Rocket 3.6 08:33:33 10° SE 08:38:42 88° NE 08:43:59 10° NNW
STARLINK-30 3.7 08:37:59 40° W 08:38:52 53° NW 08:42:26 10° NE
STARLINK-72 3.7 08:38:29 41° W 08:39:17 51° NW 08:42:43 10° NE
NOSS 3-1 (A) 4.1 08:31:28 10° NW 08:39:21 82° WSW 08:48:12 10° SSE
STARLINK-59 3.9 08:41:41 35° W 08:42:39 45° NW 08:46:02 10° NE
Cosmos 2221 3.5 08:39:22 10° NNW 08:43:09 29° W 08:43:34 28° W
Cosmos 1538 Rocket 4.3 08:40:49 23° S 08:44:07 64° ESE 08:49:27 10° NNE
Cosmos 1315 Rocket 4.0 08:40:56 10° NW 08:44:05 26° W 08:44:05 26° W
Cosmos 2237 4.3 08:42:34 30° SW 08:45:23 64° WNW 08:51:06 10° NNE
STARLINK-56 3.9 08:44:14 33° W 08:45:24 46° NW 08:48:55 10° NE
STARLINK-1028 3.6 08:43:58 37° WSW 08:45:29 73° NW 08:49:37 10° NE
STARLINK-73 4.0 08:45:48 31° W 08:47:02 44° NW 08:50:31 10° NE
STARLINK-38 4.1 08:47:22 29° W 08:48:40 43° NW 08:52:09 10° NE
STARLINK-65 4.1 08:48:56 28° W 08:50:18 41° NW 08:53:47 10° NE
STARLINK-1021 3.8 08:48:47 33° WSW 08:50:29 66° NW 08:54:37 10° NE
STARLINK-68 4.3 08:49:50 26° W 08:51:17 38° NW 08:54:41 10° NE
IRS-P3 4.3 08:46:46 10° N 08:52:01 60° WNW 08:54:59 26° SW
STARLINK-53 4.3 08:50:33 26° W 08:52:02 38° NW 08:55:27 10° NE
Cosmos 2058 4.1 08:51:49 24° W 08:52:42 26° WNW 08:56:16 10° NNW
STARLINK-1010 4.0 08:52:14 29° WSW 08:54:13 59° NW 08:58:25 10° NE
Cosmos 773 Rocket 4.1 08:51:33 28° SW 08:54:20 66° WNW 08:59:37 10° NNE
SL-16 R/B 3.6 08:52:02 17° W 08:54:55 25° WNW 08:59:31 10° N
Cosmos 1844 Rocket 3.2 08:49:25 10° NNW 08:54:58 61° ENE 09:00:27 10° SE
STARLINK-1019 3.9 08:53:32 29° WSW 08:55:27 60° NW 08:59:34 10° NE
STARLINK-50 4.3 08:55:04 24° W 08:56:52 40° NW 09:00:29 10° NE
SL-16 R/B 3.6 08:55:49 21° WSW 08:57:24 24° W 09:02:13 10° NW
Meteor 2-12 Rocket 4.4 08:53:34 16° S 08:58:31 85° E 09:04:36 10° N
CZ-2D R/B 3.9 08:56:02 10° NNW 08:59:22 18° WNW 09:01:38 14° W
COSMOS 2428 3.4 08:54:57 13° S 08:59:42 49° ESE 09:05:08 10° NE
STARLINK-29 3.2 08:56:36 10° NW 08:59:46 69° NE 09:02:55 10° SE
STARLINK-1012 4.0 08:58:20 26° WSW 09:00:27 54° NW 09:04:32 10° NE
Cosmos 1339 Rocket 4.4 08:56:19 10° N 09:02:29 86° W 09:08:41 10° S
Meteor 1-28 Rocket 3.1 09:00:23 13° SSE 09:03:45 88° ENE 09:07:31 10° N
Cosmos 1328 Rocket 4.4 09:00:35 10° N 09:04:51 49° E 09:09:03 10° SSE
STARLINK-1026 4.3 09:07:52 20° WSW 09:10:25 45° NW 09:14:25 10° NE
Landsat 5 4.4 09:07:02 10° SSE 09:11:26 54° ENE 09:15:47 10° N
ERS-2 2.0 09:08:19 10° SSE 09:11:58 89° W 09:15:39 10° NNW
STARLINK-1013 4.5 09:12:40 18° W 09:15:26 42° NW 09:19:23 10° NE
Cosmos 2360 Rocket 3.0 09:12:49 18° WSW 09:16:21 37° WNW 09:21:33 10° N
Cosmos 1606 2.7 09:13:23 10° N 09:17:11 80° E 09:20:58 10° S
STARLINK-1052 4.4 09:15:01 18° SSW 09:17:45 42° SE 09:21:40 10° ENE
SL-4 R/B 2.6 09:13:28 10° WNW 09:17:58 43° SW 09:22:13 10° SSE
SL-24 DEB 4.5 09:13:51 10° N 09:18:18 51° W 09:21:46 16° SSW
BREEZE-M DEB (TANK) 4.3 09:17:21 10° NNW 09:19:30 23° NE 09:23:04 10° E
Cosmos 2366 rocket 4.1 09:16:20 15° SSW 09:21:32 59° W 09:27:45 10° N
STARLINK-1033 4.1 09:24:34 16° SSW 09:27:39 52° SE 09:31:41 10° ENE
CZ-2C R/B 2.7 09:24:08 10° N 09:27:56 79° WNW 09:31:33 11° SSW
CZ-4B R/B 4.2 09:26:04 10° ESE 09:28:23 20° ENE 09:30:45 10° NNE
Cosmos 2333 Rocket 2.2 09:25:41 14° SSW 09:30:38 76° WNW 09:36:20 10° NNE
Cosmos 1633 3.5 09:27:46 10° SSE 09:31:13 47° E 09:34:42 10° NNE
STARLINK-1031 4.0 09:29:22 15° SSW 09:32:38 58° SE 09:36:43 10° NE
Cosmos 1408 Rocket 3.5 09:28:38 11° SSW 09:32:46 69° W 09:37:04 10° N
CZ-2D R/B 4.1 09:29:16 10° N 09:33:20 43° WNW 09:36:57 13° SW
Cosmos 2219 Rocket 2.2 09:28:32 13° SSW 09:33:36 77° WNW 09:39:12 10° NNE
STARLINK-52 3.0 09:31:54 10° WNW 09:35:02 53° SW 09:38:10 10° SSE
ADEOS II 3.6 09:31:50 10° NNW 09:35:43 21° WNW 09:39:21 11° WSW
Cosmos 2322 4.2 09:31:19 14° SW 09:35:58 48° WNW 09:41:30 10° N
STARLINK-1024 3.8 09:34:08 14° SW 09:37:35 65° SE 09:41:42 10° NE
IDEFIX/ARIANE 42P 2.7 09:33:56 10° N 09:39:08 62° WNW 09:44:17 10° SSW
Cosmos 1821 Rocket 4.2 09:34:46 10° S 09:41:07 80° E 09:47:25 10° N
STARLINK-1035 3.7 09:38:56 13° SW 09:42:34 72° SE 09:46:42 10° NE
ARIANE 5 R/B 3.6 09:38:26 10° N 09:42:40 28° WNW 09:46:43 11° SW
ATLAS 5 CENTAUR R/B 1.8 09:39:27 10° SSW 09:43:23 60° ESE 09:47:43 10° NE
Cosmos 158 Rocket 4.4 09:38:38 10° S 09:43:35 61° ESE 09:48:27 10° NNE
Lacrosse 5 rocket 1.2 09:40:12 13° SW 09:43:49 80° NW 09:47:42 10° NE
Meteor 1-26 Rocket 4.4 09:39:27 10° N 09:45:24 87° E 09:51:24 10° S
Cosmos 1461 4.1 09:42:03 10° NNW 09:46:40 53° ENE 09:51:17 10° SE
Cosmos 1151 Rocket 3.3 09:42:47 10° NNW 09:47:01 48° W 09:51:13 10° SSW
STARLINK-1032 3.7 09:43:41 12° SW 09:47:30 80° SE 09:51:39 10° NE
Cosmos 2344 3.6 09:40:55 10° SSW 09:48:35 83° ESE 09:56:20 10° NE
H-2A R/B 2.6 09:44:54 10° S 09:49:04 42° W 09:53:20 10° NNW
STARLINK-1037 3.6 09:46:35 11° SW 09:50:30 86° SE 09:54:38 10° NE
Cosmos 1727 Rocket 4.1 09:45:03 10° NNW 09:51:05 58° W 09:57:06 10° S
deb Chang Zheng 4 3.6 09:46:53 10° NNE 09:51:10 81° ESE 09:55:25 10° S
Cosmos 1825 4.3 09:50:02 10° W 09:51:35 12° WNW 09:53:08 10° NW
BREEZE-M R/B 4.2 09:49:58 10° NW 09:52:20 25° NNE 09:54:26 10° E
ADEOS 4.4 09:47:20 10° NNE 09:52:25 51° E 09:57:29 10° S
STARLINK-1011 3.6 09:48:29 11° SW 09:52:30 88° SE 09:56:39 10° NE
Cosmos 1680 Rocket 3.6 09:49:45 10° SSW 09:55:00 88° WNW 10:00:20 10° NNE
STARLINK-1036 3.6 09:53:20 10° SW 09:57:28 84° NW 10:01:37 10° NE
Cosmos 1844 4.0 09:54:00 10° NW 09:59:33 47° WSW 10:05:01 10° S
Cosmos 1515 Rocket 3.6 09:55:51 10° NNW 10:00:09 63° W 10:04:25 10° S
CZ-4C R/B 4.0 09:57:09 10° SSW 10:00:21 29° W 10:03:34 10° NW
STARLINK-1341 4.5 09:56:41 10° NW 10:00:31 52° NE 10:04:19 10° ESE
Cosmos 923 Rocket 4.2 09:56:26 10° SSW 10:01:32 57° WNW 10:06:40 10° N
Shenzhou-11 Module 2.3 09:59:55 10° WNW 10:02:18 51° NNE 10:04:42 10° E
STARLINK-1044 3.7 09:58:19 10° SW 10:02:26 76° NW 10:06:36 10° NE
Cosmos 1346 Rocket 2.8 10:00:38 10° S 10:04:38 85° W 10:08:37 10° N
Cosmos 1980 4.0 09:59:32 10° SSW 10:05:09 72° ESE 10:10:47 10° NNE
Meteor 2-3 Rocket 4.2 10:00:18 10° SSW 10:05:37 45° WNW 10:10:58 10° N
